Starlink 6037

operational
NORAD ID: 56461 Int'l Des: 2023-064 Owner: SPXS Country: US Constellation: starlink
LEOCIRCULAR

Starlink 6037について

説明を読み込み中...

リアルタイム位置

3D地球を読み込み中...

次回通過

高度履歴

Altitude vs Time

uPlot chart will show altitude changes over time

軌道要素

1 56461U 23064P 25257.33445416 .00000267 00000-0 30211-4 0 9994
2 56461 69.9982 228.9497 0003325 269.3661 90.7117 14.98329907128833
Epoch: Sep 14, 2025 • Age: 25 hours

現在のステータス

高度 595.2 km
速度 7.56 km/s
衛星直下点 -69.74°S, 8.19°W
打ち上げ日 May 10, 2023
運用期間 2.3 years
タイプ internet

技術仕様

分類 Payload
質量 305.00 kg
乾燥質量 290.00 kg
総質量 305.00 kg
長さ 0.20 m
直径 2.80 m
スパン 9.00 m
形状 Box + pan
製造者 SPXS
バスタイプ Starlink
フェーズステータス In Orbit
所有者/国 SPXS/US

大規模コンステレーション

Loading constellations...